FW4751 Weather Reports


time (UTC)temp
C
wind
direction
speed
KPH
gust
KPH
rain 1hr
cm
rain 24hr
cm
rain mn
cm
humidity
%
barometer
mb
20260901043004 15 0.0 1.6 0.00 0.00 0.00 75 1014.6
20260901042507 15 0.0 1.6 0.00 0.00 0.00 75 1014.6
20260901042009 15 0.0 1.6 0.00 0.00 0.00 74 1014.5
20260901041504 16 0.0 1.6 0.00 0.00 0.00 74 1014.5
20260901041009 16 0.0 1.6 0.00 0.00 0.00 74 1014.5
20260901040504 16 0.0 1.6 0.00 0.00 0.00 74 1014.4
20260901040004 16 0.0 3.2 0.00 0.00 0.00 73 1014.4
20260901035504 16 0.0 3.2 0.00 0.00 0.00 73 1014.4
20260901035024 16 0.0 3.2 0.00 0.00 0.00 73 1014.4
20260901034504 16 315 1.6 4.8 0.00 0.00 0.00 73 1014.4
20260901034024 16 315 1.6 3.2 0.00 0.00 0.00 73 1014.2
20260901033504 16 315 1.6 3.2 0.00 0.00 0.00 72 1014.2
20260901033009 16 315 1.6 4.8 0.00 0.00 0.00 72 1014.2
20260901032504 16 0.0 1.6 0.00 0.00 0.00 72 1014.1
20260901032004 16 0.0 4.8 0.00 0.00 0.00 71 1014.1
20260901031504 16 0.0 3.2 0.00 0.00 0.00 71 1014.1
20260901031004 17 248 1.6 6.4 0.00 0.00 0.00 71 1013.9
20260901030549 17 293 1.6 4.8 0.00 0.00 0.00 71 1013.7
20260901030024 17 293 1.6 4.8 0.00 0.00 0.00 70 1013.7
20260901025504 17 293 1.6 4.8 0.00 0.00 0.00 70 1013.7
20260901025004 17 315 1.6 6.4 0.00 0.00 0.00 69 1013.6
20260901024524 17 315 1.6 4.8 0.00 0.00 0.00 69 1013.7
20260901024030 17 315 1.6 6.4 0.00 0.00 0.00 68 1013.7
20260901023524 17 315 1.6 6.4 0.00 0.00 0.00 68 1013.7
20260901023024 18 315 1.6 3.2 0.00 0.00 0.00 67 1013.7
20260901022503 18 338 1.6 3.2 0.00 0.00 0.00 67 1013.6
20260901022024 18 338 1.6 3.2 0.00 0.00 0.00 67 1013.7
20260901021524 18 293 1.6 4.8 0.00 0.00 0.00 66 1013.6
20260901021004 18 338 1.6 6.4 0.00 0.00 0.00 66 1013.5
20260901020504 18 315 1.6 3.2 0.00 0.00 0.00 66 1013.5
20260901020044 19 315 1.6 4.8 0.00 0.00 0.00 65 1013.5
20260901015509 19 338 1.6 6.4 0.00 0.00 0.00 66 1013.6
20260901015004 19 338 1.6 3.2 0.00 0.00 0.00 65 1013.5
20260901014503 19 338 3.2 6.4 0.00 0.00 0.00 64 1013.6
20260901014008 20 315 1.6 6.4 0.00 0.00 0.00 65 1013.4
20260901013504 20 338 1.6 8.0 0.00 0.00 0.00 65 1013.4
20260901013009 19 0 1.6 4.8 0.00 0.00 0.00 65 1013.6
20260901012504 19 315 1.6 6.4 0.00 0.00 0.00 65 1013.5
20260901012003 19 23 3.2 6.4 0.00 0.00 0.00 65 1013.4
20260901011508 19 23 3.2 9.7 0.00 0.00 0.00 65 1013.5
20260901011004 20 0 3.2 9.7 0.00 0.00 0.00 64 1013.5
20260901010503 20 0 3.2 11.3 0.00 0.00 0.00 64 1013.6
20260901010004 20 315 1.6 9.7 0.00 0.00 0.00 65 1013.5
20260901005528 20 0 3.2 8.0 0.00 0.00 0.00 65 1013.5
20260901005004 20 0 3.2 9.7 0.00 0.00 0.00 66 1013.4
20260901004509 20 23 4.8 16.1 0.00 0.00 0.00 65 1013.5
20260901004004 20 315 4.8 16.1 0.00 0.00 0.00 64 1013.5
20260901003509 20 315 4.8 11.3 0.00 0.00 0.00 64 1013.3
20260901003006 20 338 4.8 14.5 0.00 0.00 0.00 62 1013.3
20260901002523 20 0 4.8 12.9 0.00 0.00 0.00 61 1013.3
20260901002003 20 338 3.2 14.5 0.00 0.00 0.00 62 1013.2
20260901001508 20 338 3.2 12.9 0.00 0.00 0.00 61 1013.4
20260901001004 20 0 4.8 9.7 0.00 0.00 0.00 60 1013.2
20260901000528 21 338 4.8 16.1 0.00 0.00 0.00 60 1013.4
20260901000009 21 338 3.2 11.3 0.00 0.00 0.00 60 1013.3
20260831235509 20 338 3.2 12.9 0.00 0.00 0.00 61 1013.3
20260831235008 20 338 3.2 9.7 0.00 0.00 0.00 61 1013.4
20260831234504 20 0 3.2 9.7 0.00 0.00 0.00 61 1013.4
20260831234028 20 0 4.8 16.1 0.00 0.00 0.00 60 1013.4
20260831233508 21 338 4.8 11.3 0.00 0.00 0.00 60 1013.4
20260831233009 21 0 4.8 16.1 0.00 0.00 0.00 61 1013.4
20260831232503 21 0 4.8 11.3 0.00 0.00 0.00 61 1013.4
20260831232008 21 0 3.2 11.3 0.00 0.00 0.00 60 1013.6
20260831231508 21 0 4.8 12.9 0.00 0.00 0.00 60 1013.6
20260831231049 21 338 4.8 14.5 0.00 0.00 0.00 59 1013.4
20260831230508 21 23 4.8 12.9 0.00 0.00 0.00 59 1013.6
20260831230003 22 0 3.2 11.3 0.00 0.00 0.00 59 1013.6
20260831225528 22 23 4.8 11.3 0.00 0.00 0.00 59 1013.6
20260831225023 22 315 3.2 8.0 0.00 0.00 0.00 60 1013.5
20260831224508 21 23 3.2 8.0 0.00 0.00 0.00 60 1013.7
20260831224008 21 23 3.2 8.0 0.00 0.00 0.00 60 1013.7
20260831223543 21 23 4.8 11.3 0.00 0.00 0.00 60 1013.7
20260831223009 21 338 3.2 8.0 0.00 0.00 0.00 60 1013.7
20260831222528 21 338 3.2 8.0 0.00 0.00 0.00 60 1013.7
20260831222008 21 23 4.8 14.5 0.00 0.00 0.00 60 1013.8
20260831221508 21 338 4.8 14.5 0.00 0.00 0.00 60 1013.8
20260831221008 21 338 3.2 12.9 0.00 0.00 0.00 60 1013.9
20260831220509 22 0 3.2 11.3 0.00 0.00 0.00 60 1013.9
20260831220006 22 315 3.2 8.0 0.00 0.00 0.00 59 1014.0
20260831215528 22 338 4.8 11.3 0.00 0.00 0.00 58 1014.2
20260831215003 22 338 3.2 11.3 0.00 0.00 0.00 58 1014.2
20260831214503 22 0 3.2 11.3 0.00 0.00 0.00 58 1014.1
20260831214003 23 338 3.2 11.3 0.00 0.00 0.00 57 1014.2
20260831213528 23 315 3.2 8.0 0.00 0.00 0.00 57 1014.3
20260831213008 22 315 3.2 8.0 0.00 0.00 0.00 58 1014.3
20260831212508 22 338 3.2 11.3 0.00 0.00 0.00 59 1014.3
20260831212003 22 315 3.2 8.0 0.00 0.00 0.00 59 1014.4
20260831211508 22 0 3.2 9.7 0.00 0.00 0.00 59 1014.5
20260831210508 22 45 3.2 11.3 0.00 0.00 0.00 57 1014.4
20260831210008 23 315 3.2 9.7 0.00 0.00 0.00 56 1014.5
20260831205503 23 338 1.6 8.0 0.00 0.00 0.00 56 1014.6
20260831205028 23 225 3.2 9.7 0.00 0.00 0.00 56 1014.6
20260831204503 23 225 1.6 6.4 0.00 0.00 0.00 57 1014.5
20260831204010 23 315 3.2 8.0 0.00 0.00 0.00 57 1014.5
20260831203510 22 248 3.2 8.0 0.00 0.00 0.00 59 1014.6
20260831203005 22 225 1.6 3.2 0.00 0.00 0.00 61 1014.6
20260831202505 21 45 3.2 9.7 0.00 0.00 0.00 62 1014.6
20260831202010 21 315 3.2 6.4 0.00 0.00 0.00 62 1014.6
20260831201510 21 315 3.2 8.0 0.00 0.00 0.00 62 1014.6
20260831201030 21 23 3.2 9.7 0.00 0.00 0.00 63 1014.7
20260831200505 21 0 3.2 8.0 0.00 0.00 0.00 62 1014.6
20260831200010 21 338 1.6 9.7 0.00 0.00 0.00 63 1014.7
20260831195509 21 315 1.6 6.4 0.00 0.00 0.00 64 1014.7
20260831195010 21 315 1.6 6.4 0.00 0.00 0.00 64 1014.8
20260831194510 21 135 1.6 3.2 0.00 0.00 0.00 65 1014.9
20260831194010 21 45 1.6 3.2 0.00 0.00 0.00 64 1015.0
20260831193510 21 45 1.6 4.8 0.00 0.00 0.00 64 1015.1
20260831193005 21 113 1.6 4.8 0.00 0.00 0.00 65 1015.2
20260831192505 20 135 1.6 4.8 0.00 0.00 0.00 65 1015.2
20260831192010 21 113 1.6 6.4 0.00 0.00 0.00 64 1015.3
20260831191550 21 135 1.6 4.8 0.00 0.00 0.00 64 1015.3
20260831191009 21 113 1.6 4.8 0.00 0.00 0.00 64 1015.4
20260831190510 21 135 1.6 4.8 0.00 0.00 0.00 63 1015.2
20260831190010 21 135 1.6 4.8 0.00 0.00 0.00 61 1015.4
20260831185509 21 225 1.6 3.2 0.00 0.00 0.00 62 1015.2
20260831185010 21 45 1.6 4.8 0.00 0.00 0.00 63 1015.3
20260831184509 20 135 1.6 3.2 0.00 0.00 0.00 64 1015.4
20260831184010 20 0.0 3.2 0.00 0.00 0.00 64 1015.5
20260831183510 20 113 1.6 3.2 0.00 0.00 0.00 65 1015.5
20260831183010 19 45 1.6 3.2 0.00 0.00 0.00 66 1015.4
20260831182510 19 0.0 3.2 0.00 0.00 0.00 67 1015.4
20260831182010 19 0.0 3.2 0.00 0.00 0.00 67 1015.4
20260831181510 19 45 1.6 3.2 0.00 0.00 0.00 67 1015.4
20260831181024 19 0.0 3.2 0.00 0.00 0.00 67 1015.4
20260831180529 18 0.0 1.6 0.00 0.00 0.00 68 1015.5
20260831180009 18 0.0 3.2 0.00 0.00 0.00 69 1015.4
20260831175505 18 338 1.6 3.2 0.00 0.00 0.00 69 1015.5
20260831175009 18 225 1.6 4.8 0.00 0.00 0.00 69 1015.4
20260831174510 18 315 1.6 3.2 0.00 0.00 0.00 69 1015.5
20260831174009 18 270 1.6 3.2 0.00 0.00 0.00 70 1015.5
20260831173510 17 0.0 1.6 0.00 0.00 0.00 71 1015.5
20260831173004 17 23 1.6 4.8 0.00 0.00 0.00 71 1015.6
20260831172505 17 0.0 1.6 0.00 0.00 0.00 72 1015.5
20260831172004 17 0.0 3.2 0.00 0.00 0.00 72 1015.6
20260831171509 17 0 1.6 3.2 0.00 0.00 0.00 72 1015.5
20260831171029 17 45 1.6 3.2 0.00 0.00 0.00 72 1015.4
20260831170509 17 0 1.6 3.2 0.00 0.00 0.00 73 1015.4
20260831170025 17 225 1.6 3.2 0.00 0.00 0.00 73 1015.4
20260831165505 17 135 1.6 3.2 0.00 0.00 0.00 74 1015.2
20260831165005 17 270 1.6 3.2 0.00 0.00 0.00 75 1015.2
20260831164509 16 158 1.6 3.2 0.00 0.00 0.00 76 1015.1
20260831164009 16 270 1.6 3.2 0.00 0.00 0.00 77 1015.1
20260831163504 16 0.0 1.6 0.00 0.00 0.00 78 1015.2
20260831163004 16 0.0 1.6 0.00 0.00 0.00 79 1015.1
20260831162507 15 0.0 1.6 0.00 0.00 0.00 81 1015.0
20260831162004 15 0.0 1.6 0.00 0.00 0.00 81 1015.0
20260831161530 15 0.0 1.6 0.00 0.00 0.00 83 1015.0
20260831161009 15 315 1.6 3.2 0.00 0.00 0.00 84 1014.9
20260831160509 15 0.0 1.6 0.00 0.00 0.00 86 1014.9
20260831160004 15 0.0 1.6 0.00 0.00 0.00 86 1014.9
20260831155509 15 315 1.6 3.2 0.00 0.00 0.00 87 1015.0
20260831155004 14 0.0 1.6 0.00 0.00 0.00 88 1014.9
20260831154524 14 0.0 3.2 0.00 0.00 0.00 88 1015.0
20260831154004 14 248 1.6 3.2 0.00 0.00 0.00 88 1014.9
20260831153504 14 0.0 1.6 0.00 0.00 0.00 89 1014.9
20260831153004 13 315 1.6 3.2 0.00 0.00 0.00 89 1014.9
20260831152504 13 0.0 3.2 0.00 0.00 0.00 89 1014.8
20260831152004 13 0.0 1.6 0.00 0.00 0.00 89 1015.0
20260831151504 13 0.0 1.6 0.00 0.00 0.00 89 1015.0
20260831151024 13 0.0 3.2 0.00 0.00 0.00 89 1014.9
20260831150529 13 0.0 1.6 0.00 0.00 0.00 89 1014.9
20260831150004 13 0.0 1.6 0.00 0.00 0.00 89 1014.8
20260831145509 12 0.0 1.6 0.00 0.00 0.00 88 1014.8
20260831145024 12 0.0 1.6 0.00 0.00 0.00 88 1014.7
20260831144504 12 0.0 1.6 0.00 0.00 0.00 88 1014.6
20260831144004 12 0.0 1.6 0.00 0.00 0.00 87 1014.6
20260831143504 12 0.0 1.6 0.00 0.00 0.00 87 1014.5
20260831143004 12 0.0 1.6 0.00 0.00 0.00 86 1014.5
20260831142504 12 0.0 1.6 0.00 0.00 0.00 86 1014.3
20260831142004 12 0.0 1.6 0.00 0.00 0.00 86 1014.3
20260831141504 12 0.0 1.6 0.00 0.00 0.00 85 1014.2
20260831141005 12 0.0 1.6 0.00 0.00 0.00 85 1014.2
20260831140524 12 0.0 1.6 0.00 0.00 0.00 85 1014.1
20260831140004 12 0.0 1.6 0.00 0.00 0.00 84 1014.3
20260831135504 12 0.0 1.6 0.00 0.00 0.00 84 1014.1
20260831135004 12 0.0 1.6 0.00 0.00 0.00 84 1014.0
20260831134504 12 0.0 1.6 0.00 0.00 0.00 84 1014.0
20260831134004 13 0.0 1.6 0.00 0.00 0.00 84 1014.0
20260831133504 13 0.0 1.6 0.00 0.00 0.00 83 1013.9
20260831133004 13 0.0 1.6 0.00 0.00 0.00 83 1013.8
20260831132504 13 0.0 1.6 0.00 0.00 0.00 83 1013.9
20260831132024 13 0.0 1.6 0.00 0.00 0.00 83 1013.8
20260831131504 13 0.0 1.6 0.00 0.00 0.00 83 1013.7
20260831131009 13 0.0 1.6 0.00 0.00 0.00 83 1013.7
20260831130504 13 0.0 3.2 0.00 0.00 0.00 83 1013.7
20260831130004 13 0.0 1.6 0.00 0.00 0.00 82 1013.6
20260831125504 13 0.0 1.6 0.00 0.00 0.00 82 1013.6
20260831125004 13 315 1.6 3.2 0.00 0.00 0.00 82 1013.7
20260831124509 13 0.0 3.2 0.00 0.00 0.00 82 1013.6
20260831124004 13 315 1.6 4.8 0.00 0.00 0.00 82 1013.6
20260831123504 14 0.0 1.6 0.00 0.00 0.00 82 1013.5
20260831123009 14 270 1.6 3.2 0.00 0.00 0.00 82 1013.3
20260831122504 14 248 1.6 3.2 0.00 0.00 0.00 82 1013.3
20260831122004 14 248 1.6 4.8 0.00 0.00 0.00 82 1013.3
20260831121529 14 270 1.6 4.8 0.00 0.00 0.00 83 1013.2
20260831121028 14 248 3.2 6.4 0.00 0.00 0.00 83 1013.1
20260831120504 14 248 1.6 3.2 0.00 0.00 0.00 84 1013.1
20260831120004 15 0.0 4.8 0.00 0.00 0.00 85 1013.1
20260831115504 15 0.0 3.2 0.00 0.00 0.00 86 1013.2
20260831115024 15 270 1.6 4.8 0.00 0.00 0.00 86 1013.0
20260831114509 15 248 1.6 4.8 0.00 0.00 0.00 87 1013.0
20260831114029 15 293 1.6 3.2 0.00 0.00 0.00 87 1013.0
20260831113529 15 0.0 3.2 0.00 0.00 0.00 88 1012.9
20260831113024 15 0.0 3.2 0.00 0.00 0.00 88 1012.9
20260831112524 15 0.0 3.2 0.00 0.00 0.00 88 1012.9
20260831112024 15 0.0 1.6 0.00 0.00 0.00 89 1012.9
20260831111503 15 0.0 1.6 0.00 0.00 0.00 89 1013.0
20260831111004 15 0.0 1.6 0.00 0.00 0.00 89 1013.0
20260831110503 15 0.0 3.2 0.00 0.00 0.00 89 1012.9
20260831110008 15 0.0 3.2 0.00 0.00 0.00 89 1012.9
20260831105504 15 0.0 3.2 0.00 0.00 0.00 89 1012.9
20260831105009 15 0.0 3.2 0.00 0.00 0.00 90 1012.8
20260831104509 15 0.0 1.6 0.00 0.00 0.00 90 1012.8
20260831104008 15 0.0 3.2 0.00 0.00 0.00 90 1012.7
20260831103529 14 0.0 3.2 0.00 0.00 0.00 90 1012.7
20260831103024 14 0.0 1.6 0.00 0.00 0.00 90 1012.6
20260831102503 14 0.0 3.2 0.00 0.00 0.00 90 1012.7
20260831102009 14 0.0 1.6 0.00 0.00 0.00 90 1012.7
20260831101503 14 0.0 1.6 0.00 0.00 0.00 90 1012.7
20260831101008 14 0.0 3.2 0.00 0.00 0.00 90 1012.7
20260831100503 14 0.0 1.6 0.00 0.00 0.00 89 1012.6
20260831100009 14 0.0 1.6 0.00 0.00 0.00 89 1012.7
20260831095504 14 0.0 1.6 0.00 0.00 0.00 89 1012.6
20260831095023 14 0.0 1.6 0.00 0.00 0.00 89 1012.7
20260831094549 14 0.0 1.6 0.00 0.00 0.00 89 1012.7
20260831094008 14 0.0 1.6 0.00 0.00 0.00 89 1012.7
20260831093508 14 0.0 1.6 0.00 0.00 0.00 89 1012.7
20260831093023 14 0.0 1.6 0.00 0.00 0.00 89 1012.7
20260831092503 14 0.0 1.6 0.00 0.00 0.00 89 1012.8
20260831092008 14 0.0 0.0 0.00 0.00 0.00 89 1012.7
20260831091508 14 0.0 1.6 0.00 0.00 0.00 89 1012.8
20260831091003 14 0.0 1.6 0.00 0.00 0.00 89 1012.7
20260831090503 14 0.0 1.6 0.00 0.00 0.00 89 1012.8
20260831090004 14 0.0 1.6 0.00 0.00 0.00 89 1012.8
20260831085508 14 0.0 1.6 0.00 0.00 0.00 89 1012.9
20260831085008 14 0.0 1.6 0.00 0.00 0.00 89 1012.8
20260831084509 14 0.0 1.6 0.00 0.00 0.00 89 1012.8
20260831084003 14 0.0 1.6 0.00 0.00 0.00 88 1012.8
20260831083503 14 0.0 1.6 0.00 0.00 0.00 88 1012.8
20260831083003 14 0.0 1.6 0.00 0.00 0.00 88 1012.7
20260831082508 14 0.0 1.6 0.00 0.00 0.00 88 1012.8
20260831082003 14 0.0 1.6 0.00 0.00 0.00 88 1013.0
20260831081529 14 0.0 1.6 0.00 0.00 0.00 88 1013.1
20260831081008 14 0.0 1.6 0.00 0.00 0.00 88 1013.0
20260831080509 14 0.0 1.6 0.00 0.00 0.00 88 1013.1
20260831080003 14 0.0 1.6 0.00 0.00 0.00 88 1013.1
20260831075509 14 0.0 1.6 0.00 0.00 0.00 87 1013.1
20260831075008 13 0.0 1.6 0.00 0.00 0.00 87 1013.1
20260831074503 13 0.0 1.6 0.00 0.00 0.00 87 1013.1
20260831074003 13 0.0 1.6 0.00 0.00 0.00 86 1013.2
20260831073508 14 0.0 1.6 0.00 0.00 0.00 86 1013.1
20260831073008 14 0.0 1.6 0.00 0.00 0.00 86 1013.1
20260831072543 14 0.0 1.6 0.00 0.00 0.00 86 1013.1
20260831072023 14 0.0 1.6 0.00 0.00 0.00 86 1013.0
20260831071503 14 0.0 1.6 0.00 0.00 0.00 86 1013.1
20260831071008 14 0.0 1.6 0.00 0.00 0.00 86 1013.1
20260831070503 14 0.0 1.6 0.00 0.00 0.00 86 1013.1
20260831070005 14 0.0 1.6 0.00 0.00 0.00 86 1013.0
20260831065503 15 0.0 1.6 0.00 0.00 0.00 85 1013.2
20260831065048 15 0.0 1.6 0.00 0.00 0.00 85 1013.0
20260831064503 15 0.0 1.6 0.00 0.00 0.00 85 1013.1
20260831064008 15 0.0 3.2 0.00 0.00 0.00 85 1013.1
20260831063503 15 0.0 1.6 0.00 0.00 0.00 85 1013.2
20260831063003 15 0.0 1.6 0.00 0.00 0.00 85 1013.2
20260831062509 15 0.0 1.6 0.00 0.00 0.00 84 1013.2
20260831062008 15 0.0 1.6 0.00 0.00 0.00 84 1013.2
20260831061505 15 0.0 1.6 0.00 0.00 0.00 83 1013.3
20260831061005 15 0.0 1.6 0.00 0.00 0.00 83 1013.2
20260831060510 15 0.0 1.6 0.00 0.00 0.00 83 1013.2
20260831060003 15 0.0 1.6 0.00 0.00 0.00 82 1013.3
20260831055525 15 0.0 1.6 0.00 0.00 0.00 82 1013.3
20260831055005 15 0.0 1.6 0.00 0.00 0.00 81 1013.3
20260831054510 15 0.0 3.2 0.00 0.00 0.00 81 1013.3
20260831054005 15 0.0 1.6 0.00 0.00 0.00 81 1013.3
20260831053505 15 0.0 1.6 0.00 0.00 0.00 80 1013.3
20260831053006 15 0.0 3.2 0.00 0.00 0.00 79 1013.3
20260831052505 15 0.0 1.6 0.00 0.00 0.00 79 1013.2
20260831052005 15 0.0 1.6 0.00 0.00 0.00 79 1013.3
20260831051509 15 0.0 1.6 0.00 0.00 0.00 79 1013.2
20260831051009 15 0.0 1.6 0.00 0.00 0.00 79 1013.2
20260831050505 15 0.0 3.2 0.00 0.00 0.00 79 1013.3
20260831050025 15 0.0 1.6 0.00 0.00 0.00 79 1013.2
20260831045505 15 0.0 1.6 0.00 0.00 0.00 78 1013.2
20260831045010 16 0.0 3.2 0.00 0.00 0.00 78 1013.2
20260831044509 16 23 1.6 3.2 0.00 0.00 0.00 78 1013.1
20260831044005 16 0.0 3.2 0.00 0.00 0.00 77 1013.1
20260831043525 16 23 1.6 3.2 0.00 0.00 0.00 76 1013.1